Theta_e
318 318 318 318 318 318 317 317 316 315 316 316 316 315 316 315 315 307 300 307 309 318 321 308 307 304 303 297 298 298 289 289 292 296 299 307 306 312 319 319 323 330 329 333 335
317 317 317 317 317 318 317 317 316 315 315 316 316 316 315 315 306 302 311 318 320 325 312 305 301 301 294 294 295 292 288 291 297 299 299 305 306 307 314 316 318 321 335 339 339
315 316 316 316 316 317 316 317 317 316 315 315 316 315 315 313 300 303 320 321 322 321 315 308 303 298 292 293 292 292 290 295 299 301 303 303 304 306 310 309 315 317 329 330 334
314 314 315 315 315 316 316 316 316 317 315 314 315 315 315 307 286 310 334 336 327 321 310 303 298 291 290 289 294 290 297 298 300 302 302 302 306 304 307 309 317 320 317 316 317
314 314 314 314 314 315 315 315 315 315 315 313 313 314 308 299 299 308 329 334 321 316 306 301 293 292 290 292 293 291 296 299 301 302 302 302 303 302 308 313 311 313 318 312 310
315 314 314 314 314 315 315 315 315 315 314 314 313 314 304 294 305 314 320 319 316 311 305 298 295 296 295 295 293 296 297 299 300 299 301 300 301 301 305 310 310 309 310 308 310
314 314 314 314 314 314 314 314 314 314 314 314 314 311 304 300 310 313 311 309 310 310 302 303 301 296 298 295 298 298 294 297 299 300 297 300 297 299 305 307 306 306 307 309 310
315 314 314 314 314 314 314 314 313 313 314 314 315 310 300 312 311 308 308 306 308 309 306 303 302 297 297 298 298 293 291 290 298 299 300 300 293 300 303 303 304 306 306 308 309
315 315 314 315 314 313 313 312 312 314 317 315 309 305 298 315 311 312 310 307 307 307 305 307 303 299 298 292 289 289 286 288 293 299 299 298 294 300 304 302 302 303 304 306 305
316 315 315 315 314 313 311 311 312 313 314 313 312 301 304 305 311 310 309 309 307 306 303 302 298 294 292 288 283 287 288 291 291 297 296 294 293 298 302 301 301 301 302 304 305
316 315 314 315 314 312 309 302 304 304 307 302 304 303 305 314 314 307 309 309 307 301 294 298 291 289 292 293 294 293 291 291 294 297 295 293 294 298 300 298 298 300 300 301 303
315 314 313 313 314 312 308 298 305 306 298 308 309 307 309 310 306 306 310 304 301 294 297 294 290 295 298 298 296 295 292 291 295 298 294 293 294 298 300 299 299 300 300 302 302
313 313 313 313 312 306 303 302 308 308 297 304 310 308 309 310 306 305 307 304 299 295 295 292 296 301 298 296 295 295 292 292 293 296 296 293 290 294 298 299 300 301 301 302 303
313 312 312 312 305 305 303 309 308 308 293 299 304 308 311 310 303 310 310 304 299 296 296 295 300 299 297 296 296 290 296 296 295 291 285 292 282 289 294 296 298 299 300 301 303
312 313 312 312 301 301 310 308 306 304 285 306 304 313 309 302 303 305 309 305 298 298 298 294 296 295 294 295 297 293 297 295 294 289 285 287 283 287 292 293 295 298 299 300 303
313 313 312 305 303 306 311 311 306 293 287 302 304 302 301 302 302 305 304 306 305 298 298 296 301 298 296 299 298 299 294 291 288 285 280 286 286 285 290 292 295 299 301 302 302
313 312 309 307 302 310 308 303 292 288 305 300 301 300 299 298 299 301 300 296 293 289 289 294 295 300 301 295 296 293 285 279 278 279 280 288 286 287 293 299 300 301 302 301 302
310 309 305 306 305 307 307 298 287 299 298 304 302 300 296 299 298 299 297 293 297 295 291 289 288 297 301 297 290 290 287 280 275 277 280 290 285 289 301 303 304 305 303 304 304
307 301 304 310 309 309 302 291 296 299 300 299 299 297 298 301 302 301 299 295 297 295 289 289 291 302 304 304 300 295 289 291 285 284 281 285 290 296 303 303 304 304 304 302 302
300 299 305 316 314 307 298 295 301 306 302 300 294 297 292 295 298 299 297 303 301 302 299 296 290 300 301 303 303 299 300 289 286 279 277 284 286 287 296 299 301 303 302 301 300
297 301 312 315 312 302 293 297 303 308 304 299 296 294 294 293 296 296 298 301 304 302 301 297 293 294 297 295 293 293 292 293 292 290 280 281 287 299 299 301 300 301 304 304 303
295 297 311 313 299 301 296 301 305 304 304 301 300 298 295 294 293 295 296 298 303 303 297 297 293 288 292 298 300 296 291 291 285 286 287 283 284 301 301 302 304 301 306 306 305
292 296 311 309 296 296 301 302 303 302 300 299 296 297 297 292 289 295 297 302 303 300 296 296 289 283 286 290 296 293 294 293 291 291 289 286 287 302 301 301 303 303 305 306 305
293 294 300 302 301 297 295 298 297 302 299 299 298 298 294 290 291 289 294 297 301 300 304 298 289 286 281 286 291 289 292 293 291 287 289 290 292 296 298 300 300 301 303 303 303
295 296 297 292 295 295 297 297 295 295 298 297 294 294 291 286 288 287 291 293 298 302 296 292 284 288 288 291 291 290 290 291 290 290 287 289 291 294 298 299 300 301 301 302 303
294 294 297 296 298 297 295 295 295 295 294 293 291 293 291 286 288 287 289 289 290 295 292 296 285 287 286 290 290 289 292 291 291 291 291 292 291 298 302 299 300 302 300 300 300
299 300 297 294 294 293 293 296 296 295 296 296 294 290 288 291 293 292 292 293 292 290 291 292 289 286 282 288 287 282 289 292 292 293 293 289 292 296 296 297 298 295 296 297 298
Wind_Speed
13 13 13 13 12 12 13 16 14 14 13 13 12 12 13 15 15 4 9 15 13 20 7 7 3 4 4 4 4 4 3 10 9 10 10 10 10 12 10 4 5 5 5 4 16
14 14 14 14 14 14 14 13 15 14 14 12 11 11 12 14 5 11 19 17 22 12 6 6 3 1 1 4 4 6 6 9 5 8 9 3 12 13 6 6 3 6 4 15 7
17 16 16 16 16 13 14 16 15 16 14 13 11 11 11 8 5 11 8 26 22 16 5 7 2 3 3 5 5 5 8 5 14 17 14 12 16 9 7 9 5 18 18 22 30
18 17 17 17 17 16 16 15 16 16 15 12 11 10 10 3 4 4 6 5 23 15 8 5 3 4 4 7 10 6 8 13 12 15 11 15 17 8 13 7 10 14 16 8 11
17 18 18 17 17 16 14 15 15 16 14 11 9 7 3 1 16 9 6 6 16 11 13 9 7 6 5 5 5 6 12 10 16 17 19 3 15 11 9 6 8 6 14 11 13
17 18 18 18 17 16 15 14 13 13 14 12 7 5 2 7 8 10 9 9 11 12 9 8 9 12 5 10 9 6 18 18 12 13 14 11 11 7 8 4 4 8 2 4 6
17 17 17 18 19 18 18 16 14 13 14 11 7 6 6 21 2 5 4 5 9 15 9 16 10 4 2 6 10 14 14 10 16 19 11 9 6 9 11 4 3 5 9 8 7
17 17 17 18 19 20 20 19 17 17 14 6 7 5 12 6 10 10 12 8 9 14 14 8 15 8 5 7 7 6 6 13 21 13 12 11 13 7 10 7 8 8 6 9 9
19 18 18 19 19 20 19 20 22 17 7 8 5 4 13 11 7 13 10 9 13 11 13 11 7 10 6 3 6 4 5 7 7 8 6 8 11 7 10 9 10 8 9 7 8
20 19 19 20 20 19 19 21 15 1 7 6 5 3 7 5 6 5 10 11 7 8 7 7 4 1 4 6 4 5 4 5 5 7 6 8 8 8 9 10 11 10 10 9 8
21 22 22 21 20 17 10 6 2 3 4 13 11 7 5 4 5 6 7 8 9 3 5 5 3 6 9 7 8 6 5 7 10 5 1 8 8 15 12 6 8 9 9 9 10
24 23 24 24 21 13 4 5 7 5 5 21 19 14 14 9 5 12 6 7 6 6 3 5 7 11 7 8 7 9 9 12 11 9 7 7 11 18 17 10 9 9 9 10 7
23 24 24 26 25 4 8 13 0 7 2 8 11 11 9 8 7 11 12 7 5 4 5 8 12 11 6 9 11 14 9 14 10 3 1 2 8 3 4 3 5 7 8 7 12
25 24 24 22 5 1 6 10 11 6 4 5 8 7 6 7 6 7 11 10 5 8 6 7 13 8 9 10 10 13 9 8 6 2 3 4 5 4 5 7 4 7 9 10 10
24 25 22 10 6 4 8 8 6 2 3 1 6 6 8 9 2 7 6 4 9 8 4 9 6 3 6 6 7 12 8 6 4 3 3 2 4 9 2 6 10 9 11 11 14
25 22 19 4 3 13 9 12 3 4 3 6 4 5 6 5 3 4 4 5 8 6 4 8 4 5 6 9 4 4 2 7 5 4 3 6 7 6 4 4 6 9 11 10 13
28 29 12 4 7 2 4 4 4 3 5 7 3 4 6 6 4 2 6 5 6 5 5 5 5 3 5 5 4 7 8 3 4 5 5 6 4 8 4 10 5 12 17 8 9
29 31 5 8 8 4 4 4 1 3 3 13 8 11 7 5 5 5 4 3 4 4 1 4 6 4 3 3 2 2 7 6 6 4 6 4 4 2 8 5 5 14 10 15 11
26 4 3 6 9 3 4 2 4 4 6 8 6 8 9 6 5 6 11 6 3 5 6 2 5 3 7 4 4 4 3 5 4 2 3 4 6 4 9 11 12 16 13 11 10
5 5 5 4 9 4 4 3 3 7 3 5 5 5 4 4 5 5 3 5 6 7 1 2 3 5 4 3 4 4 2 4 3 1 3 5 4 6 4 5 9 12 10 8 8
2 4 5 7 5 4 3 4 3 12 7 4 4 3 5 4 4 5 4 6 5 9 7 4 3 5 4 2 3 6 4 2 3 5 4 1 6 4 8 4 6 8 5 5 4
5 2 2 3 3 1 1 2 4 11 5 5 4 5 4 6 4 6 3 4 6 2 3 3 2 2 4 6 4 2 1 3 4 4 4 4 7 1 7 4 5 4 3 1 3
4 5 6 5 1 1 3 4 6 4 6 4 4 7 6 4 3 5 2 8 9 5 2 4 2 2 7 5 5 6 3 5 3 3 7 6 5 2 3 2 5 5 5 6 3
2 4 5 5 1 2 3 1 3 7 9 4 5 6 5 6 5 5 4 9 8 3 6 4 1 5 6 2 2 5 8 2 5 3 1 5 5 11 9 8 7 7 7 7 7
1 4 1 3 4 5 2 3 6 3 5 7 5 6 3 3 5 1 3 6 6 6 2 5 1 2 2 4 7 11 13 14 11 7 11 8 14 13 13 8 9 7 7 6 6
1 3 5 3 4 5 2 2 4 3 3 3 5 2 4 1 3 5 4 2 4 5 4 4 2 4 3 5 9 12 12 17 19 15 13 13 18 13 18 4 4 7 6 5 4
3 4 1 5 4 3 5 4 3 7 7 7 6 4 2 2 3 5 6 5 5 4 0 3 2 2 4 4 8 9 8 11 13 10 5 9 4 4 5 6 6 8 8 7 6
Wind_Direction
343 343 343 342 341 340 338 339 324 315 309 309 313 318 322 324 316 294 238 222 190 235 286 332 6 209 195 227 212 129 199 218 223 219 244 351 305 319 265 123 88 67 53 296 145
337 337 338 339 340 338 335 332 338 320 311 307 311 320 327 330 299 253 241 219 207 159 144 163 280 325 218 215 214 162 204 228 239 239 261 281 273 321 340 335 149 70 56 40 339
335 335 335 335 334 333 331 330 329 334 318 311 315 319 329 337 310 247 243 221 206 218 217 162 193 186 212 223 228 216 231 216 248 257 259 264 274 276 252 235 200 188 165 154 215
332 331 331 330 329 328 327 327 326 323 328 309 314 320 321 343 294 246 329 317 190 176 186 180 162 196 201 216 216 243 235 230 253 256 256 238 261 258 272 200 258 187 113 160 128
325 325 325 324 322 321 318 316 317 320 318 304 296 299 344 267 249 264 314 42 146 163 183 178 166 172 188 219 233 221 238 232 233 245 256 241 267 247 259 169 103 60 167 166 152
319 319 318 317 314 312 310 307 305 309 306 302 272 267 221 255 243 254 152 129 154 175 181 171 198 206 209 214 185 239 234 246 243 244 246 246 251 178 247 207 135 125 118 190 172
313 311 312 310 309 307 306 304 304 302 298 287 237 223 244 242 198 35 148 182 169 186 172 212 207 296 169 275 229 230 259 267 254 252 247 192 266 211 225 190 220 232 174 184 205
312 310 308 306 306 307 307 305 303 298 292 248 209 216 251 243 240 263 264 266 210 196 215 175 191 220 196 254 306 202 165 248 260 224 234 149 243 236 244 217 221 246 213 187 199
312 309 306 304 307 307 307 302 299 293 247 170 174 198 262 293 206 229 194 221 191 208 222 236 149 214 239 212 3 339 221 214 260 212 186 160 244 224 218 196 233 239 241 206 198
310 310 307 305 308 309 312 301 283 287 131 159 252 268 252 250 227 199 181 203 214 204 226 203 180 18 11 82 233 264 280 252 215 262 154 251 242 246 233 197 216 221 236 227 204
313 314 311 309 306 310 321 342 126 136 231 198 192 229 269 223 239 227 211 180 204 143 190 265 102 229 237 213 232 263 255 281 295 289 167 248 257 250 232 228 215 221 218 215 198
316 317 316 314 306 307 293 252 235 133 268 225 232 245 269 319 309 219 176 166 151 204 190 6 233 233 233 261 260 271 281 283 285 269 166 263 251 233 211 222 192 204 201 195 197
317 318 320 317 311 281 199 232 318 10 209 260 202 222 238 176 225 233 167 190 182 221 202 188 242 224 210 251 258 260 252 261 241 257 171 256 321 320 177 197 183 212 201 195 191
318 317 322 325 305 246 235 256 220 207 45 273 175 240 186 189 269 212 176 165 205 219 246 230 250 239 239 238 231 241 211 230 253 333 225 108 269 318 308 302 284 237 212 219 214
315 313 318 321 284 269 244 55 146 86 18 244 142 151 144 160 290 224 163 155 194 222 158 248 311 328 288 231 291 228 230 226 229 235 60 346 88 272 275 297 275 261 250 221 213
308 309 318 308 190 244 316 306 126 54 303 316 134 154 121 232 248 360 150 177 203 223 238 250 250 233 239 305 261 267 77 42 56 80 358 255 141 281 258 226 289 275 260 234 224
311 308 297 231 226 101 307 37 54 115 263 299 268 179 162 187 245 246 216 159 163 167 261 295 265 250 246 304 332 65 59 345 339 354 209 277 326 225 294 301 282 286 269 245 136
313 310 234 200 236 275 24 56 112 243 52 216 311 150 180 168 242 241 195 222 244 129 139 202 312 171 152 119 276 331 129 150 230 215 258 315 263 267 334 32 84 47 36 77 73
318 303 257 241 202 127 82 79 180 327 1 336 333 98 96 257 93 44 9 278 249 166 164 233 251 317 352 277 127 300 64 192 130 46 87 251 300 3 31 12 79 70 26 44 58
315 316 267 214 140 100 84 236 352 305 15 9 38 21 39 49 87 92 54 327 356 43 125 212 305 315 4 0 83 139 207 0 23 242 233 276 231 214 38 26 40 64 77 49 51
312 337 258 135 87 59 150 241 274 290 32 356 334 11 68 38 101 163 163 48 17 341 16 11 114 287 42 15 58 359 333 129 109 146 189 286 264 182 159 150 98 95 49 54 60
330 316 271 50 59 127 198 238 312 306 333 50 74 58 52 32 25 34 75 55 6 4 22 26 134 244 269 284 279 137 291 88 156 237 187 183 258 356 134 146 91 31 80 212 76
319 274 309 104 225 266 280 256 233 146 23 50 45 59 33 35 52 33 57 23 32 54 83 341 350 19 335 348 20 67 106 129 126 59 220 217 257 103 334 341 153 155 279 291 267
330 327 324 41 319 124 15 303 61 47 62 83 66 71 59 26 50 328 49 16 22 72 50 53 107 162 192 266 296 293 304 212 143 169 284 241 288 288 287 265 277 249 206 224 268
187 271 261 343 328 330 341 299 65 68 52 36 72 76 86 23 341 2 29 5 7 355 82 82 247 301 238 296 296 286 282 280 242 201 210 237 232 237 248 212 239 254 291 247 241
42 7 336 282 311 336 246 286 147 138 119 82 94 115 78 144 227 285 354 121 241 7 47 25 277 20 284 263 270 289 286 259 256 250 243 237 251 242 251 292 225 244 275 278 316
318 317 131 295 338 343 298 176 108 123 61 103 140 115 38 166 264 242 216 208 208 154 36 164 176 73 246 332 319 295 242 266 241 234 255 232 253 322 66 63 49 76 71 71 47